Погода в Исилькуле

Погода в Исилькуле : погода сейчас, прогноз погоды и архив. Всё, что Вы хотите узнать о погоде в Исилькуле!

Хотите узнать прогноз погоды в Исилькуле? Тогда Вам сюда: Погода в Исилькуле

Поиск расширенной информации на нашем сайте:

Другие новости

Новости СМИ2

Главная страница сайта

Новости сайта

03.07.2017

Напоминаем, что на нашем специализированном сайте Метеоцентр.Азия вы можете получить высокодетализированные автоматические прогнозы погоды по пунктам России, СНГ и мира в авиационном формате (включающие направление и скорость ветра, видимость, явления погоды, количество и форму облачности, нижнюю и верхнюю границу облачности).

Рекомендуем: Деньги в долг срочно дам деньги в долг.

Погода в Исилькуле - сегодня

Время (UTC), дата Ветер
(°,м/с) 
Видим.   Явления Облачность Т
(°С)
Тd
(°С)
f(%) Тe
(°С)
Pmin
(гПа)
dP
(гПа)
Po
(мм)
O2
(г/м3)
Тmin Tmax R s Состояние
почвы
21 15.02.18 340 (С) 10 км    ясно 
-17.8 -20.1 82 -22  1029.8  1.5  760  329           
00 16.02.18 330 (СЗ) 10 км    ясно 
-22.5 -24.5 84 -23  1032  1.9  761  336           
03 16.02.18 320 (СЗ) 20000 м    6/0 средняя, верхняя 
[Ac trans|Cs]
-23.2 -25.4 82 -26  1034.4  2.2  763  338  -24.2      20  неравномерный
сухой снег
100% 
06 16.02.18 330 (СЗ) 20000 м    4/0 верхняя 
[Ci fib]
-16.3 -18.8 81 -19  1035.6  1.7  764  329           
09 16.02.18 340 (С) 20000 м    3/0 верхняя 
[Ci fib]
-12.2 -17.3 66 -14  1036.4  1.1  765  324           
12 16.02.18 310 (СЗ) 20000 м    4/0 верхняя 
[Ci fib]
-13.3 -17.9 68 -13  1037.6  1.1  766  326           
15 16.02.18 тихо ()   10 км    ясно 
-20.5 -22.5 84 -21  1039.4  1.3  767  336    -11.5       
18 16.02.18 260 (З) 10 км    ясно 
-23.1 -25.4 81 -24  1040  0.4  767  339           
21 16.02.18 270 (З) 10 км    ясно 
-25.4 -28.1 78 -26  1040.6  0.4  767  343           
00 17.02.18 250 (З) 10 км    ясно 
-26.7 -29.5 77 -27  1041  0.3  767  345           
06 17.02.18 250 (З) 20000 м    3/0 верхняя 
[Ci sp]
-17.9 -20 84 -18  1041.1  0.2  768  333           
09 17.02.18 270 (З) 20000 м    ясно 
-11.4 -14.4 78 -13  1040  -0.6  767  324           
12 17.02.18 210 (ЮЗ) 20000 м    ясно 
-13.3 -17.2 72 -13  1039.3  -0.8  767  326           
15 17.02.18 230 (ЮЗ) 10 км    ясно 
-16.6 -18.3 87 -19  1039.5  0.1  767  330    -9.6       
18 17.02.18 230 (ЮЗ) 10 км    4/0 верхняя 
[Ci fib]
-17.8 -19.7 85 -20  1038.6  -0.9  766  332           
21 17.02.18 230 (ЮЗ) 10 км    10/0 средняя 
[As trans]
-16.1 -17.9 86 -18  1037.8  -0.7  766  329           
00 18.02.18 240 (ЮЗ) 10 км  [диам. изморози 1 мм]  ясно 
-16 -17.8 86 -18  1037.1  -0.7  765  329           
03 18.02.18 240 (ЮЗ) 20000 м  [диам. изморози 9 мм]  8/0 средняя, верхняя 
[Ac trans|Ci fib]
-16 -17.8 86 -20  1036.6  -0.4  765  329  -18.2      20  неравномерный
сухой снег
100% 
06 18.02.18 260 (З) 20000 м  [диам. изморози 5 мм]  5/0 верхняя 
[Ci fib]
-13.1 -14.8 87 -17  1036.1  -0.4  764  325           
09 18.02.18 260 (З) 20000 м  [диам. изморози 0 мм]  3/0 верхняя 
[Ci fib]
-10.4 -13.8 76 -13  1035.4  -0.5  764  321           
12 18.02.18 250 (З) 20000 м    4/0 средняя, верхняя 
[Ac trans|Ci fib]
-10.8 -14.1 77 -13  1035.3  0.1  764  322           
15 18.02.18 270 (З) 10 км    ясно 
-14.2 -16.1 85 -18  1035.8  0.3  764  326    -9.5       
18 18.02.18 270 (З) 10 км    ясно 
-13.2 -15.4 83 -18  1035.6  -0.2  764  325           
21 18.02.18 260 (З) 10 км    ясно 
-15.7 -17.6 85 -18  1035.8  0.1  764  328           
00 19.02.18 260 (З) 10 км    ясно 
-17.9 -19.8 85 -20  1036.5  0.5  764  331           
Время (UTC), дата Ветер
(°,м/с) 
Видим.   Явления Облачность Т
(°С)
Тd
(°С)
f(%) Тe
(°С)
Pmin
(гПа)
dP
(гПа)
Po
(мм)
O2
(г/м3)
Тmin Tmax R s Состояние
почвы

Для получения пояснительной информации подведите курсор к названию столбца.

ПОГОДА в Исилькуле - архив

Всё, что Вы хотите узнать о погоде в Исилькуле - удобно и подробно!

Выберите нужную дату (начиная с 1 января 2015* года) и нажмите кнопку "Найти".
Будут отображены архивные сводки погоды по пункту Исилькуль, начиная с указанной даты.


Отображать данные в формате CSV (для использования в таблицах Excel)


Внимание! Наш архив погоды предназначен исключительно для личного некоммерческого использования в познавательных целях. Если Вам необходимы официальные справки о состоянии погоды (для производственных, юридических, коммерческих и т.п. целей), обращайтесь в органы Росгидромета.

*Примечание: данная дата относится к архиву по метеостанциям СССР (Россия, СНГ, Балтия).
Архив по метеостанциям Зарубежной Европы и Азии (кроме Китая) хранится 10 дней, по другим регионам земного шара (Китай, Африка, Америка, Австралия, Океания) - 1 день.

Исилькуль - район местоположения метеостанции


Название, широта, долгота, высота метеостанции:
Исилькуль 54.9°ш. 71.2°д. 125 м над ур. моря [Российская Федерация]

Дополнительная информация

В oтличие oт бoльшинства пoгoдных сайтoв мы публикуем пoдрoбную метеoинфoрмацию в детальнoм прoфессиoнальнoм фoрмате.

Характеристики температуры и влажнoсти вoздуха измеряются на высoте 2 м в тени вдали oт зданий и деревьев.
Скoрoсть ветра измеряется на высoте 10 м (на урoвне рoста челoвека скoрoсть ветра ниже в 1.5-2 раза). Если метеoстанция нахoдится в гoрoде или в лесу, тo скoрoсть ветра занижена на 2-4 м/с пo сравнению с oткрытым местoм. Скoрoсть ветра над акватoриями крупных рек и oзёр, а также на вершинах хoлмoв на 2-5 м/с выше, чем в oбычных услoвиях.
Атмoсфернoе давление в разных тoчках местнoсти мoжет значительнo oтличаться oт давления на метеoстанции, в зависимoсти oт услoвий рельефа (при пoдъёме на 10 м давление пoнижается примернo на 1 мм рт.ст.).